COSMOS 1275 DEB, 39965

Orbit data source: Space-Track

COSMOS 1275 DEB, 39965 is space debris in LEO originally from a launch on Thu, 04 Jun 1981 UTC launched from the Plesetsk Missile And Space Complex (PKMTR). Debris objects in space refer to the collection of defunct objects orbiting the Earth. Examples of debris include non-operational satellites, rocket bodies, and fragments generated from explosions, collisions, or faulty payload assembly.

Loading next visibility...
Identifier
39965, 1981-053PB
Orbit
LEO
Country
Flag of CISCIS
Related business
Manufacturer
Unknown
Mission
Spacecraft
Bus & Motor
Unknown
Mass
Unknown
Launch date (UTC)
1981-06-04 (44 years ago)
Launch vehicle
Unknown
Launch site
Plesetsk Missile And Space Complex (PKMTR)
Object type
Payload
Rocket body
Debris
Shape & HBR
Unknown shape, 0.1 m
Radar Cross Section
Small (<0.1 m²)

Expand to show TLE details & history
Last TLE update: 22 hours ago

TLE from 22 hours ago
0 COSMOS 1275 DEB
1 39965U 81053PB  25287.86332572  .00000989  00000-0  87009-3 0  9992
2 39965  82.9645  76.7070 0042700 318.4391 193.8554 13.84053692572670
Epoch: 2025-10-14T20:43Z
TLE epoch observation values (Epoch: 2025-10-14T20:43:11.342Z)
Latitude
27.63426°
Longitude
-81.4213°
Altitude
983.329 km
Speed
7.347 km/s
True Right ascension
16h 52m 05s
True Declination
27° 29' 51"
Sunlit
Object was in daylight at epoch
Visualization orbit readout
Latitude
Unknown
Longitude
Unknown
Altitude
Unknown
Speed
Unknown
Apparent Right ascension
Unknown
Apparent Declination
Unknown
Sunlit
N/A
Visualization observer readout
Local Sidereal Time
13:01:49
Azimuth
Unknown
Elevation
Unknown
Doppler factor
Unknown
Orbital elements
Apogee altitude
977.956 km
Perigee altitude
915.402 km
Semi-major axis
7,324.816 km
Eccentricity
0.00427
Inclination
82.9645°
RAAN
76.707°
Arg. of periapsis
318.4391°
True anomaly
193.73883°
Mean anomaly
193.8554°
Eccentric anomaly
193.79705°
Mean motion
3.46217 °/min
Orbital period
103.98 mins
BSTAR
0.00087009
Loading maneuver chart data...
Computing Atmospheric mass density...

Documentation

Showing up to 5 results
|